Wind_Speed
7 6 5 5 4 3 3 2 2 2 2 2 2 3 3 4 4 4 4 3 3 2 2 2 2 2 2 2 3 4 4 5 5 5 6 6 7 7 8 10 10 11 11 11 11 11 11 11 11
8 7 6 6 5 4 4 3 3 3 2 2 3 3 3 4 4 4 3 3 3 2 2 2 2 2 2 3 3 4 4 4 5 5 6 6 7 7 8 9 10 11 11 12 12 12 12 12 12
9 8 7 6 6 5 5 5 4 3 3 3 3 3 3 4 4 4 4 3 3 2 2 2 2 2 2 3 3 4 4 5 5 6 6 6 7 8 9 10 10 11 11 12 12 12 12 12 13
11 10 9 8 7 7 6 6 4 4 4 3 3 4 4 4 4 4 3 3 2 2 2 2 2 2 2 2 2 3 4 5 5 6 6 7 8 9 10 10 11 11 12 12 12 12 13 13 13
12 11 10 9 9 8 8 7 6 5 5 4 4 4 4 4 4 4 3 3 2 2 2 2 1 1 1 1 2 3 4 5 5 6 7 8 9 9 10 11 11 12 12 12 13 13 13 13 13
14 13 12 10 9 9 9 8 7 7 7 6 6 5 4 4 4 4 3 3 3 2 1 1 1 1 1 2 3 3 4 5 5 6 7 8 9 9 10 11 11 12 12 12 12 13 13 13 14
15 14 13 12 11 11 10 9 8 8 8 7 6 5 4 5 5 4 4 4 3 2 1 1 1 1 2 3 4 4 5 5 6 7 7 8 9 10 11 12 12 12 12 12 12 12 12 13 14
16 15 14 13 12 12 11 10 9 9 8 7 7 6 5 4 5 4 4 4 3 3 2 2 2 2 3 3 4 5 5 6 7 7 8 9 10 11 12 12 13 13 13 13 13 12 12 13 13
16 16 15 14 13 12 11 11 10 9 8 8 7 7 6 5 5 5 5 4 4 3 3 3 3 3 4 4 5 5 6 7 7 8 9 10 11 11 12 12 13 13 14 14 14 13 13 13 13
17 16 15 15 14 13 12 12 11 9 9 8 8 8 8 7 7 6 5 5 4 4 4 3 3 4 4 5 5 6 7 7 8 9 10 10 11 11 12 12 13 13 14 14 14 14 14 13 14
16 16 16 15 14 13 13 13 12 10 10 9 9 9 8 8 8 7 6 6 5 5 5 4 4 4 5 5 6 7 7 8 9 9 10 10 11 12 12 13 13 13 14 13 13 14 14 14 14
16 16 16 15 15 14 14 13 12 11 10 10 9 10 9 9 9 7 7 6 6 6 5 5 5 5 6 6 7 8 8 8 9 9 10 11 11 12 13 13 14 14 14 14 14 14 14 14 15
16 15 15 15 15 15 14 13 13 12 11 10 9 10 10 10 9 8 8 7 7 6 6 6 6 6 7 7 8 8 9 9 9 10 11 11 12 13 13 14 14 14 14 14 14 14 15 15 15
15 15 15 15 15 14 13 13 13 13 12 11 10 10 10 10 9 8 8 8 7 7 7 7 7 7 8 8 8 9 9 9 9 10 11 12 13 13 14 14 15 15 15 15 15 15 15 15 15
14 13 14 13 13 13 12 12 13 13 13 12 11 11 11 10 10 9 9 8 8 8 8 8 8 8 8 8 8 9 9 10 10 11 12 12 13 14 14 15 15 15 15 15 15 15 15 15 15
12 12 12 11 11 12 12 12 13 13 13 12 12 11 12 11 10 9 9 9 9 9 9 9 9 9 8 8 8 9 9 10 10 11 12 13 14 15 15 15 15 15 15 15 15 15 15 15 15
10 10 10 10 10 10 11 12 12 12 12 12 12 12 12 11 10 10 9 9 10 9 9 9 9 9 9 8 8 9 10 10 11 12 13 14 14 15 15 15 15 15 15 15 15 15 15 15 16
9 9 9 9 9 9 10 10 10 11 11 11 11 11 11 11 10 10 9 9 10 10 10 10 10 9 9 9 9 9 10 10 11 12 13 14 15 15 15 16 16 16 16 16 15 15 15 16 16
9 9 8 8 8 8 9 8 9 10 10 11 11 12 12 12 11 10 10 9 10 10 10 10 10 10 9 9 9 10 10 10 11 12 13 14 15 15 16 16 16 16 16 16 15 15 15 15 15
8 8 7 7 7 8 8 8 8 9 9 10 11 11 11 11 10 10 9 10 9 10 10 11 10 10 9 9 10 10 11 10 11 12 13 14 15 16 16 16 16 17 17 16 15 15 14 14 14
8 8 7 6 7 7 7 7 7 7 8 9 9 10 10 10 10 10 10 10 10 10 10 10 10 10 9 10 10 10 10 11 12 13 14 14 15 16 16 16 17 17 16 16 15 14 14 13 13
8 7 7 7 7 6 6 5 5 6 6 7 8 8 9 9 10 10 9 10 10 10 10 10 10 10 10 10 10 10 11 11 12 13 14 15 15 16 17 17 17 16 16 15 14 13 13 12 12
7 8 8 8 7 6 5 5 4 4 5 5 6 7 8 8 8 9 9 9 9 10 10 10 10 10 10 10 10 11 11 12 12 13 14 15 15 16 16 16 16 16 16 15 14 13 12 12 12
8 8 7 7 7 6 6 5 4 4 4 4 5 6 6 6 7 8 8 9 9 9 10 10 10 10 10 10 11 11 11 12 13 13 14 15 15 16 16 16 16 15 15 14 13 12 12 12 11
7 8 7 7 7 6 5 5 5 5 5 4 4 5 5 5 6 7 7 8 9 9 10 10 10 11 10 10 11 11 11 12 13 14 14 15 15 16 15 16 15 15 15 14 13 12 12 11 10
7 7 8 8 7 6 5 5 5 4 4 4 4 4 5 5 5 6 7 7 8 9 9 9 10 11 11 11 11 11 12 13 13 14 14 15 15 15 15 15 15 15 14 14 14 13 13 11 10
6 6 7 7 6 5 4 4 4 4 3 3 3 4 4 5 5 6 7 7 8 9 9 10 10 11 11 12 11 11 12 13 13 14 14 15 15 15 15 15 15 15 14 14 14 13 13 11 10
6 7 7 6 6 5 4 3 3 3 3 3 3 4 4 5 5 6 6 7 8 9 9 10 11 11 12 12 12 12 12 13 13 13 14 14 14 14 14 14 15 14 14 13 13 13 13 11 10
6 6 5 5 5 5 4 4 3 3 3 3 4 4 5 5 7 7 7 8 8 9 10 10 11 11 11 12 13 13 13 13 13 13 14 14 14 14 14 14 14 14 14 14 13 13 12 12 11
4 5 4 4 4 5 5 4 4 4 4 4 5 5 6 7 7 8 8 8 9 9 10 10 11 11 12 12 13 13 14 14 14 13 13 13 14 14 14 14 13 13 13 13 13 13 13 12 11
Wind_Direction
272 279 286 296 301 305 311 303 286 287 257 223 214 217 211 201 209 213 210 207 208 208 216 224 230 248 257 266 267 267 271 274 278 278 278 275 274 275 276 278 278 278 276 272 270 267 268 265 259
264 269 275 280 283 285 287 286 276 267 256 234 222 217 209 206 205 205 207 211 208 203 214 233 248 262 268 270 266 269 270 276 281 282 283 285 281 281 284 285 282 280 277 274 272 268 267 265 259
259 260 265 269 270 268 275 275 269 258 255 241 232 218 209 209 208 206 208 211 209 207 226 243 254 270 274 271 268 268 269 274 279 284 288 290 290 290 290 289 287 284 279 275 272 269 267 265 261
259 259 260 261 262 261 263 268 265 257 246 253 252 238 225 223 217 207 208 211 213 223 245 257 264 279 282 278 271 273 278 281 283 285 288 291 292 293 293 292 290 287 282 277 273 270 267 264 261
256 255 256 258 255 256 258 257 256 255 252 260 262 250 240 228 221 215 214 215 212 224 256 265 269 278 276 276 281 290 294 292 290 291 294 295 296 295 296 295 293 290 286 280 274 269 266 263 259
252 253 253 251 252 254 256 255 255 257 258 260 262 249 235 227 212 210 216 219 216 222 244 252 256 270 266 282 291 297 300 300 300 301 300 301 301 298 297 297 295 293 290 285 279 274 268 263 259
248 249 250 248 251 252 253 250 250 256 252 252 253 244 234 219 207 209 216 220 214 207 218 231 229 244 272 294 300 303 304 305 306 304 303 303 304 304 301 298 295 292 290 287 283 278 273 266 259
244 244 245 246 247 249 247 245 248 250 247 246 248 240 227 220 210 212 216 214 213 212 222 230 239 258 278 292 302 304 306 309 310 308 307 307 307 306 303 300 296 293 290 288 284 279 274 269 260
241 241 242 243 244 245 246 244 245 243 240 239 240 238 230 226 217 221 225 224 219 220 227 235 255 273 287 293 301 305 308 311 312 311 311 310 308 307 306 304 300 296 292 288 283 280 275 269 262
237 238 239 242 245 243 245 245 243 238 239 239 241 237 233 233 229 227 229 229 227 229 234 247 263 281 292 297 304 308 311 312 312 312 311 311 310 310 310 309 305 300 295 291 285 278 274 271 264
236 236 237 241 245 242 242 242 238 239 242 239 239 236 233 235 233 228 229 231 233 236 243 258 267 287 295 300 305 308 308 309 311 311 312 313 312 312 313 311 307 302 297 293 288 281 275 271 266
234 234 237 240 242 244 240 239 235 238 240 238 237 232 231 235 233 228 229 234 238 242 250 260 271 287 292 297 302 303 304 307 310 311 314 315 314 315 315 313 309 304 299 294 290 285 279 273 267
232 233 235 239 241 245 240 235 234 237 233 233 235 233 232 232 231 230 231 235 240 246 254 261 272 283 289 293 300 303 304 307 312 314 315 315 315 315 316 315 311 305 301 296 291 287 281 275 267
230 233 235 239 238 239 235 231 231 232 230 229 232 230 229 230 229 230 232 232 240 247 253 261 270 279 285 291 297 302 307 310 313 316 316 315 315 316 315 314 311 308 304 299 294 289 283 277 270
227 231 233 234 234 234 232 229 229 227 228 230 228 226 225 227 231 232 235 234 239 247 254 261 268 274 279 286 295 304 309 312 312 315 316 317 317 317 315 313 312 310 306 301 297 291 286 280 272
223 225 226 230 231 230 225 223 224 222 227 226 222 223 225 226 228 233 235 237 239 247 255 261 267 271 276 285 295 303 307 311 314 316 318 320 320 319 316 314 313 311 308 304 298 292 287 281 275
214 216 222 228 228 222 219 220 222 219 224 223 221 221 221 223 227 233 237 240 241 248 255 260 267 269 275 284 293 301 307 311 316 319 320 322 322 322 320 317 315 313 311 308 302 294 287 281 276
204 208 215 218 212 208 208 211 213 217 221 222 217 216 218 222 227 232 240 243 242 248 257 262 265 268 275 283 293 302 308 313 318 321 323 324 324 324 322 320 319 316 314 311 306 299 289 282 277
197 199 205 203 198 199 203 208 209 214 219 217 214 215 221 228 233 234 239 244 245 250 257 263 266 268 273 283 294 304 311 315 319 322 324 326 327 327 326 323 321 318 316 314 309 303 296 287 279
189 191 187 190 192 195 199 204 209 217 217 211 211 216 225 229 231 235 239 244 248 252 258 264 267 268 273 281 294 303 308 315 319 322 325 328 329 329 328 325 323 321 320 317 313 307 300 291 282
182 181 176 175 179 184 192 202 210 208 209 209 214 220 225 229 232 241 245 248 254 257 260 263 265 268 275 282 291 300 308 314 319 323 326 329 330 331 330 328 326 325 323 321 316 310 304 296 285
168 173 168 164 165 173 179 191 198 204 211 212 214 219 225 231 240 247 250 254 257 259 262 265 265 269 275 282 290 298 306 312 317 321 326 328 330 332 333 330 329 328 327 324 321 315 309 300 290
155 159 162 160 161 170 173 174 176 190 205 205 214 220 228 237 244 251 253 258 261 263 264 266 268 270 276 282 289 297 302 309 315 319 324 327 329 331 332 332 331 331 330 328 324 320 316 308 294
150 153 156 160 159 165 168 164 175 181 180 186 203 215 228 242 249 251 259 264 263 264 265 264 268 272 277 285 291 296 302 308 313 317 322 325 328 330 332 333 334 334 334 332 328 323 319 316 303
145 144 147 154 160 173 172 173 175 172 173 183 201 215 230 243 252 261 267 271 271 269 267 265 268 272 277 285 292 298 303 308 312 316 320 324 327 330 331 334 335 337 336 335 332 327 322 319 312
144 149 155 161 166 170 177 183 178 174 181 193 201 212 231 245 256 266 273 275 276 276 274 273 276 276 279 286 292 298 304 307 310 314 319 322 326 329 330 333 336 337 339 339 336 332 328 323 316
146 154 155 161 165 172 179 181 187 194 201 216 224 239 248 259 266 270 275 278 279 281 279 279 280 282 284 289 294 298 302 306 309 313 317 321 324 327 331 333 336 337 337 338 339 336 334 329 320
145 146 148 153 163 174 174 186 202 209 232 251 258 267 270 270 272 277 280 281 282 284 284 282 282 284 285 290 295 297 301 305 308 312 317 320 323 326 330 332 335 337 338 337 338 339 336 329 324
147 150 154 163 173 175 192 206 219 238 257 266 269 274 273 275 280 283 284 285 288 288 287 287 285 285 286 289 294 297 299 302 306 309 315 320 322 327 329 332 334 335 337 338 339 339 338 336 332
166 166 171 182 191 194 210 226 235 249 261 269 275 277 274 277 282 285 284 287 288 290 290 288 286 287 289 290 292 297 299 300 303 306 310 314 318 323 326 329 332 334 336 338 340 339 339 338 335
Height
5872 5872 5873 5873 5874 5873 5872 5872 5871 5870 5870 5870 5871 5871 5871 5871 5872 5874 5872 5871 5871 5871 5871 5871 5871 5871 5872 5872 5872 5872 5871 5871 5871 5871 5871 5870 5870 5869 5869 5868 5868 5868 5867 5867 5867 5867 5867 5867 5867
5871 5871 5872 5872 5872 5872 5872 5871 5870 5870 5870 5869 5870 5870 5870 5870 5870 5871 5870 5870 5870 5870 5871 5871 5871 5871 5871 5871 5871 5871 5871 5870 5870 5870 5869 5869 5868 5868 5867 5867 5866 5866 5865 5865 5865 5865 5864 5865 5865
5869 5869 5871 5871 5870 5871 5870 5870 5869 5869 5869 5869 5869 5869 5870 5870 5870 5870 5870 5870 5870 5870 5870 5870 5870 5870 5870 5870 5870 5870 5870 5869 5869 5868 5868 5867 5867 5866 5866 5865 5864 5863 5863 5862 5862 5862 5862 5862 5862
5866 5868 5869 5869 5869 5869 5868 5868 5868 5868 5868 5868 5868 5869 5869 5869 5869 5869 5869 5869 5869 5869 5869 5869 5869 5869 5869 5869 5869 5869 5869 5868 5868 5867 5866 5866 5865 5864 5863 5863 5862 5861 5860 5860 5860 5859 5859 5859 5860
5864 5865 5866 5866 5867 5867 5867 5866 5867 5867 5867 5867 5867 5868 5868 5868 5867 5868 5868 5868 5868 5869 5869 5869 5869 5869 5869 5868 5868 5868 5868 5867 5866 5866 5865 5864 5863 5862 5861 5860 5859 5859 5858 5857 5857 5857 5857 5857 5857
5861 5862 5864 5864 5864 5864 5865 5865 5865 5865 5866 5866 5866 5866 5866 5867 5867 5867 5867 5867 5867 5868 5868 5868 5868 5868 5868 5868 5868 5867 5867 5866 5865 5864 5863 5862 5861 5860 5859 5858 5857 5856 5855 5854 5854 5854 5854 5854 5854
5858 5859 5860 5861 5862 5862 5863 5863 5863 5864 5864 5865 5865 5865 5865 5865 5866 5866 5866 5867 5867 5867 5867 5867 5867 5867 5867 5867 5867 5866 5865 5865 5864 5863 5862 5861 5860 5858 5857 5856 5855 5853 5853 5852 5851 5851 5851 5851 5851
5854 5856 5857 5858 5859 5860 5860 5861 5861 5862 5862 5863 5863 5864 5864 5865 5865 5865 5866 5866 5866 5866 5867 5867 5867 5866 5866 5866 5866 5865 5864 5863 5862 5861 5860 5859 5858 5856 5855 5853 5852 5851 5850 5849 5848 5848 5848 5848 5848
5850 5853 5853 5854 5856 5857 5858 5859 5860 5860 5861 5861 5862 5863 5863 5863 5864 5864 5865 5865 5865 5866 5866 5866 5866 5865 5865 5865 5864 5863 5863 5862 5861 5860 5858 5857 5855 5854 5852 5851 5849 5848 5847 5846 5845 5845 5844 5844 5845
5846 5848 5850 5851 5853 5854 5855 5856 5857 5858 5859 5860 5860 5861 5861 5862 5863 5863 5864 5864 5864 5865 5865 5865 5865 5865 5864 5864 5863 5862 5861 5860 5859 5858 5856 5855 5853 5852 5850 5848 5847 5845 5844 5843 5842 5842 5841 5841 5841
5842 5844 5846 5848 5849 5851 5852 5854 5855 5856 5857 5858 5859 5859 5860 5861 5862 5862 5863 5863 5863 5864 5864 5864 5864 5864 5863 5862 5861 5861 5860 5859 5857 5856 5854 5853 5851 5849 5848 5846 5844 5843 5841 5840 5839 5838 5838 5837 5838
5838 5840 5842 5844 5846 5848 5849 5851 5853 5854 5855 5856 5857 5857 5858 5859 5860 5861 5861 5862 5862 5863 5863 5863 5863 5862 5862 5861 5860 5859 5858 5857 5856 5854 5852 5851 5849 5847 5845 5843 5841 5840 5838 5837 5836 5835 5834 5834 5834
5835 5837 5839 5841 5843 5845 5847 5849 5850 5851 5853 5854 5855 5856 5857 5858 5858 5859 5860 5861 5861 5861 5862 5862 5861 5861 5860 5860 5859 5858 5857 5855 5854 5852 5850 5849 5847 5845 5843 5841 5839 5837 5835 5834 5833 5831 5831 5830 5830
5832 5834 5836 5838 5840 5842 5844 5846 5848 5849 5850 5852 5853 5854 5855 5856 5857 5858 5858 5859 5860 5860 5860 5860 5860 5859 5859 5858 5857 5856 5855 5853 5852 5850 5848 5846 5845 5843 5840 5838 5836 5834 5832 5830 5829 5828 5827 5826 5826
5829 5831 5833 5835 5837 5839 5842 5844 5846 5847 5848 5849 5851 5852 5853 5854 5855 5856 5857 5857 5858 5859 5859 5859 5859 5858 5857 5857 5856 5855 5853 5852 5850 5848 5846 5844 5842 5840 5838 5835 5833 5831 5828 5827 5825 5824 5823 5822 5822
5827 5829 5831 5833 5835 5837 5841 5842 5843 5844 5846 5847 5848 5850 5851 5853 5853 5854 5855 5856 5856 5857 5857 5857 5857 5857 5856 5855 5854 5853 5851 5850 5848 5846 5844 5842 5839 5837 5835 5832 5830 5828 5825 5823 5821 5820 5819 5818 5818
5825 5828 5830 5832 5833 5834 5837 5839 5840 5842 5843 5845 5846 5848 5850 5851 5852 5853 5853 5854 5855 5855 5856 5856 5855 5855 5854 5854 5853 5851 5850 5848 5846 5844 5842 5839 5837 5834 5832 5829 5827 5824 5822 5820 5818 5816 5815 5814 5813
5824 5826 5828 5829 5831 5833 5835 5836 5838 5840 5841 5843 5844 5846 5848 5849 5850 5851 5852 5852 5853 5853 5854 5854 5854 5853 5853 5852 5851 5849 5848 5846 5844 5842 5839 5837 5834 5832 5829 5826 5824 5821 5819 5816 5814 5812 5811 5810 5809
5823 5825 5827 5828 5830 5832 5833 5835 5837 5838 5840 5841 5843 5844 5846 5848 5849 5850 5850 5851 5851 5852 5852 5852 5852 5851 5851 5850 5849 5847 5846 5844 5842 5840 5837 5834 5832 5829 5826 5823 5821 5818 5815 5813 5810 5808 5807 5805 5804
5822 5824 5826 5828 5829 5831 5832 5834 5836 5837 5838 5840 5841 5843 5845 5846 5847 5848 5849 5850 5850 5850 5850 5850 5850 5850 5849 5848 5847 5846 5844 5842 5840 5838 5835 5832 5829 5826 5823 5821 5818 5815 5812 5809 5807 5804 5803 5801 5800
5822 5824 5826 5827 5829 5830 5832 5834 5835 5836 5837 5839 5840 5842 5843 5845 5846 5847 5847 5848 5848 5848 5848 5848 5848 5847 5847 5846 5845 5843 5842 5840 5838 5836 5833 5830 5827 5824 5821 5818 5815 5812 5809 5806 5803 5801 5799 5798 5796
5822 5824 5826 5827 5829 5831 5833 5835 5835 5835 5837 5838 5839 5840 5842 5843 5844 5845 5846 5846 5846 5846 5846 5846 5846 5845 5845 5844 5843 5841 5840 5838 5836 5834 5831 5828 5825 5822 5819 5815 5812 5809 5806 5803 5800 5798 5796 5794 5793
5822 5824 5826 5828 5829 5831 5833 5835 5836 5835 5836 5837 5838 5839 5841 5842 5842 5843 5844 5844 5844 5844 5844 5844 5844 5843 5843 5842 5841 5839 5838 5836 5834 5831 5829 5826 5823 5820 5817 5813 5810 5807 5803 5800 5798 5796 5793 5791 5789
5823 5825 5827 5828 5830 5832 5833 5835 5835 5835 5836 5837 5837 5838 5839 5840 5841 5841 5842 5842 5842 5842 5842 5842 5842 5841 5841 5840 5838 5837 5835 5834 5832 5829 5827 5824 5821 5818 5814 5811 5808 5804 5801 5798 5796 5793 5791 5789 5787
5824 5826 5828 5830 5831 5832 5833 5834 5835 5835 5836 5837 5837 5838 5838 5839 5840 5840 5841 5841 5841 5841 5840 5840 5839 5839 5838 5837 5836 5835 5833 5831 5830 5827 5825 5822 5819 5816 5813 5809 5806 5803 5799 5797 5794 5791 5789 5787 5784
5825 5827 5830 5831 5832 5832 5833 5834 5835 5835 5836 5836 5836 5837 5837 5838 5838 5839 5839 5839 5839 5839 5838 5838 5837 5837 5836 5835 5834 5833 5831 5829 5827 5825 5823 5820 5817 5814 5811 5807 5804 5801 5798 5795 5792 5790 5787 5785 5783
5825 5827 5829 5830 5831 5833 5833 5834 5834 5835 5835 5835 5836 5836 5836 5837 5837 5837 5837 5837 5837 5837 5836 5836 5835 5834 5833 5832 5831 5830 5829 5827 5825 5823 5820 5818 5815 5812 5809 5806 5803 5800 5797 5794 5791 5788 5785 5783 5781
5827 5827 5829 5830 5831 5833 5833 5833 5834 5834 5834 5834 5835 5835 5835 5835 5835 5835 5835 5835 5835 5835 5834 5833 5833 5832 5831 5830 5829 5828 5826 5825 5823 5821 5818 5816 5813 5810 5807 5804 5801 5798 5795 5793 5790 5787 5784 5782 5779
5827 5828 5829 5830 5831 5833 5833 5835 5833 5833 5833 5833 5834 5834 5834 5834 5834 5834 5834 5833 5833 5832 5832 5831 5830 5829 5829 5828 5827 5825 5824 5822 5820 5818 5816 5814 5811 5808 5805 5803 5800 5797 5794 5791 5789 5786 5783 5781 5778
5827 5828 5829 5830 5831 5831 5832 5836 5832 5832 5832 5832 5832 5832 5832 5832 5832 5832 5832 5831 5831 5830 5829 5829 5828 5827 5826 5825 5824 5823 5821 5819 5818 5816 5814 5811 5809 5806 5804 5801 5799 5796 5793 5790 5787 5785 5782 5780 5777